Tracking 28518 objects as of 1-Mar-2024
HD Live streaming from Space Station
objects crossing your sky now

STARLINK-6222

Track STARLINK-6222 now!
10-day predictions
STARLINK-6222 is classified as:


NORAD ID: 56481
Int'l Code: 2023-064AK
Perigee: 577.2 km
Apogee: 581.2 km
Inclination: 70.0 °
Period: 96.1 minutes
Semi major axis: 6950 km
RCS: Unknown
Launch date: May 10, 2023
Source: United States (US)
Launch site: AIR FORCE WESTERN TEST RANGE (AFWTR)
Your satellite tracking list
Your tracking list is empty




NASA's NSSDC Master Catalog

Two Line Element Set (TLE):
1 56481U 23064AK  24061.67008200 -.00000017  00000-0  63825-5 0  9993
2 56481  70.0012 185.1647 0002862 266.9845  93.0986 14.98328858 45556
Source of the keplerian elements: AFSPC